SCP
0 0 0 0 0 0 0 0 0 0 0 0 0 0 0 0 0 0 0 0 0 0 0 0 0 0 -0 0 0 0 0 0 0 0 0 0 0 0 0 0 0 0 0 0
0 0 0 0 0 0 0 0 0 0 0 0 0 0 0 0 0 0 0 0 0 0 0 0 0 0 0 0 0 0 0 0 0 -0 -0 0 0 0 0 0 0 0 0 0
0 0 0 0 0 0 0 0 0 0 0 0 0 0 0 0 0 0 0 0 0 0 0 0 0 0 0 0 0 0 0 0 0 0 0 0 0 0 0 0 0 0 0 0
0 0 0 0 0 0 0 0 0 0 0 0 0 0 0 0 0 0 0 0 0 0 0 0 0 0 0 0 0 0 0 0 0 0 0 0 0 0 0 0 0 0 0 0
0 0 0 0 0 0 0 0 0 0 0 0 0 0 0 0 0 0 0 0 0 0 -0 0 0 0 0 0 0 0 0 0 0 0 0 0 0 0 0 0 0 0 0 0
0 0 0 0 0 0 0 0 0 0 0 0 0 0 0 0 0 0 0 0 0 0 0 0 0 0 0 0 0 0 0 0 0 0 0 0 0 0 0 0 0 0 0 0
0 0 0 0 0 0 0 0 0 0 0 0 0 0 0 0 0 0 0 0 0 0 0 0 0 0 0 0 0 0 0 0 0 0 0 0 0 0 0 0 0 0 0 0
0 0 0 0 0 0 0 0 0 0 0 0 0 0 0 0 0 0 0 0 0 0 0 0 0 0 0 0 0 0 0 0 0 0 0 0 0 0 0 0 0 0 0 0
0 0 0 0 0 0 0 0 0 0 0 0 0 0 0 0 0 0 0 0 0 0 0 0 0 0 0 0 0 0 0 0 0 0 0 0 0 0 0 0 0 0 0 0
0 0 0 0 0 0 0 0 0 0 0 0 0 0 0 0 0 0 0 0 0 0 0 0 0 0 0 0 0 0 0 0 0 0 0 0 0 0 0 0 0 0 0 0
0 0 0 0 0 0 0 0 0 0 0 0 0 0 0 0 0 0 0 0 0 0 0 0 0 0 0 0 0 0 0 0 0 0 0 0 0 0 0 0 0 0 0 0
0 0 0 0 0 0 0 0 0 0 0 0 0 0 0 0 0 0 0 0 0 0 0 0 0 0 0 0 0 0 0 0 0 0 0 0 0 0 0 0 0 0 0 0
0 0 0 0 0 0 0 0 0 0 0 0 0 0 0 0 0 0 0 0 0 0 0 0 0 0 0 0 0 0 0 0 0 0 0 0 0 0 0 0 0 0 0 0
0 0 0 0 0 0 0 0 0 0 0 0 0 0 0 0 0 0 0 0 0 0 0 0 0 0 0 0 0 0 0 0 0 0 0 0 0 0 0 0 0 0 0 0
0 0 0 0 0 0 0 0 0 0 0 0 0 0 0 0 0 0 0 0 0 0 0 0 0 0 0 0 0 0 0 0 0 0 0 0 0 0 0 0 0 0 0 0
0 0 0 0 0 0 0 0 0 0 0 0 0 0 0 0 0 0 0 0 0 0 0 0 0 0 0 0 0 0 0 0 0 0 0 0 0 0 0 0 0 0 0 0
0 0 0 0 0 0 0 0 0 0 0 0 -0 -0 0 0 0 0 0 0 0 0 0 0 0 0 0 0 0 0 0 0 0 0 0 0 0 0 0 0 0 0 0 0
0 0 0 0 0 0 0 0 0 0 0 -0 -0 -0 0 0 0 0 0 0 0 0 0 0 0 0 0 0 0 0 0 0 0 0 0 0 0 0 0 0 0 0 0 0
0 0 0 0 0 0 0 0 0 0 0 0 0 0 0 0 0 0 0 0 0 0 0 0 0 0 0 0 0 0 0 0 0 0 0 0 0 0 -0 0 0 0 0 0
0 0 0 0 0 0 0 0 0 0 0 0 0 0 0 0 0 0 0 0 0 0 0 0 0 0 0 0 0 0 0 0 0 0 0 0 0 0 0 0 0 0 0 0
0 0 0 0 0 0 0 0 0 0 0 0 0 0 0 0 0 0 0 0 0 0 0 0 -0 0 0 0 0 0 0 0 0 0 0 0 0 0 0 0 0 0 0 0
0 0 0 0 0 0 0 0 0 0 0 0 0 0 0 0 0 0 0 0 0 0 0 -0 -0 -0 0 0 0 0 0 0 -0 -0 0 0 0 0 0 0 0 0 0 0
0 0 0 0 0 0 0 0 0 0 0 0 0 0 0 0 0 0 0 0 0 0 0 -0 -0 -0 0 0 0 0 0 0 0 0 0 0 0 0 0 0 0 0 0 0
0 0 0 0 0 0 0 0 0 0 0 0 0 0 0 0 0 0 0 0 0 0 0 0 0 0 -0 -0 0 0 0 0 0 0 0 0 0 0 0 0 0 0 0 0
0 0 0 0 0 0 0 0 0 0 0 0 0 0 0 0 0 0 0 0 0 0 0 0 0 0 -0 -0 0 0 0 0 0 0 0 0 0 0 0 0 0 0 0 0
0 0 0 0 0 0 0 0 0 0 0 0 0 0 0 0 0 0 0 0 0 0 0 0 0 0 -0 -0 0 0 0 0 0 0 0 0 0 0 0 0 0 0 0 0
0 0 0 0 0 0 0 0 0 0 0 0 0 0 0 0 0 0 0 0 -0 -0 0 0 0 0 0 0 0 0 0 0 0 0 0 0 0 0 0 0 0 0 0 0
Wind_Speed
4 4 3 4 6 5 2 1 2 3 3 4 4 2 2 2 3 3 4 4 4 4 4 4 4 3 3 3 3 3 3 2 2 2 2 2 2 2 2 2 2 2 2 2
3 3 4 4 7 5 3 2 1 1 3 3 3 2 3 3 3 4 4 4 4 4 4 4 4 4 4 4 3 3 3 3 3 2 2 2 2 2 2 2 2 2 2 2
4 5 4 4 5 3 2 2 1 1 3 3 4 4 3 3 3 4 5 5 6 5 5 5 5 4 4 4 3 3 3 4 3 2 2 3 3 2 2 2 2 2 2 2
1 4 1 3 2 3 3 3 3 2 2 2 3 4 3 2 2 4 5 5 6 5 5 5 4 4 4 4 3 3 4 4 3 3 3 3 2 2 2 2 2 2 2 2
1 1 3 3 4 3 0 1 2 3 4 4 3 4 4 3 3 4 6 6 5 5 5 4 4 4 3 3 3 3 3 4 3 3 3 3 3 2 1 1 2 2 2 2
1 1 3 4 5 4 2 1 3 3 3 4 4 4 5 6 6 6 6 5 4 4 3 4 5 3 2 4 3 4 4 4 3 3 2 3 3 2 1 1 1 2 2 2
1 2 4 3 4 4 2 5 5 3 3 3 3 5 7 7 6 5 5 4 4 3 3 4 5 2 3 4 4 5 4 4 3 3 2 3 2 1 1 1 1 2 2 2
1 1 5 4 3 0 5 5 4 4 3 3 5 6 6 5 5 5 5 4 3 3 4 5 4 2 3 4 5 4 3 3 3 3 2 2 1 1 0 0 1 1 1 3
5 6 6 2 2 3 3 3 4 3 5 4 4 5 5 5 5 5 4 3 3 3 4 5 4 2 3 4 3 3 3 3 3 2 2 1 0 0 0 0 1 1 1 2
2 4 3 3 2 2 2 3 4 5 5 4 5 5 6 5 5 4 4 4 3 2 3 4 4 3 4 4 3 2 2 3 2 1 2 2 1 0 1 1 1 2 1 2
3 5 4 3 3 3 3 3 4 4 4 3 4 5 5 5 4 4 4 4 3 2 3 4 4 4 4 3 2 2 2 2 2 1 1 1 1 1 1 2 3 3 3 2
6 7 4 6 5 3 3 4 4 4 4 4 3 4 4 4 3 3 4 4 3 3 3 4 4 4 4 3 1 1 2 2 2 1 1 1 1 2 3 2 3 3 5 4
6 5 4 5 4 2 3 4 4 3 4 5 4 3 3 3 4 3 3 4 3 4 4 4 4 3 4 3 1 1 2 2 2 1 1 1 1 1 2 4 4 3 4 5
4 2 3 3 3 3 3 4 4 4 4 4 4 4 3 3 4 4 5 5 4 3 3 3 3 4 4 2 2 2 2 3 2 2 2 2 1 2 2 2 2 3 4 3
4 3 4 3 3 3 4 3 5 5 5 5 4 4 4 4 5 5 5 4 3 3 4 3 3 4 4 3 2 2 2 2 2 1 2 1 1 1 1 1 1 1 2 3
3 2 2 3 4 4 4 4 4 5 5 5 4 4 4 5 5 5 4 3 3 4 4 4 4 5 4 3 2 2 2 3 2 1 1 1 1 0 0 1 1 1 1 2
2 3 4 5 5 4 4 4 4 5 5 5 5 5 5 4 4 5 5 4 4 4 4 4 5 5 3 2 2 1 2 2 2 1 1 1 1 1 1 1 1 1 2 2
1 1 2 3 4 5 5 5 5 6 6 6 5 5 4 4 5 6 6 5 4 4 4 4 4 3 3 2 2 1 1 1 1 1 1 1 1 1 1 1 1 1 1 1
2 2 4 5 5 4 5 5 6 6 6 5 5 5 5 5 5 5 5 4 4 5 6 5 5 3 3 3 2 1 1 1 1 1 1 1 1 1 1 1 1 1 1 0
3 3 5 5 5 5 6 6 6 6 6 5 5 5 6 6 6 5 5 4 5 5 5 4 3 2 3 3 2 1 1 1 1 1 1 1 1 1 1 1 1 1 1 1
3 4 5 6 7 7 6 6 6 7 7 6 5 6 7 7 6 5 4 5 6 5 4 4 3 2 2 2 2 1 1 2 2 2 1 1 1 1 1 1 1 1 1 1
4 5 6 7 7 8 7 6 6 7 7 7 6 6 6 6 6 5 5 5 5 5 3 2 2 3 3 3 2 2 2 2 2 1 1 1 1 2 1 1 1 1 1 1
4 5 6 8 8 8 9 7 7 7 7 7 7 7 6 6 4 4 5 4 3 4 3 3 4 4 4 3 2 2 2 2 2 2 2 2 2 2 2 2 2 2 1 1
5 5 6 8 7 7 9 9 8 7 7 8 7 7 5 4 4 4 4 5 5 5 4 4 6 5 4 2 2 2 2 3 2 2 2 2 2 2 2 2 2 1 1 2
6 6 6 7 7 7 8 9 9 8 8 6 7 6 5 4 4 4 4 4 5 5 4 5 6 6 4 2 2 3 3 3 2 2 2 2 2 2 2 2 2 2 2 2
6 6 6 7 7 7 6 6 6 6 6 6 6 5 4 3 4 4 3 4 5 4 4 3 3 4 3 2 2 3 3 2 2 2 2 2 2 2 2 2 2 2 2 2
7 6 5 6 6 6 5 6 6 7 6 6 6 5 4 4 3 3 4 3 3 2 2 2 2 2 3 3 3 2 2 2 2 2 2 2 2 2 2 3 2 2 2 2
Wind_Direction
253 276 315 331 333 333 335 253 214 269 274 281 292 278 282 301 320 338 340 346 343 332 324 316 321 323 325 318 317 310 315 312 295 291 300 307 297 291 290 284 292 298 311 322
318 311 338 357 358 353 351 360 34 331 294 300 315 346 341 329 338 338 335 333 327 324 324 317 308 308 313 310 315 314 308 295 289 296 311 311 302 303 312 307 321 335 323 326
297 308 350 360 341 353 11 356 67 290 278 330 349 338 308 311 327 322 318 314 314 310 305 298 289 287 288 286 291 306 295 292 286 290 299 299 300 317 319 320 337 324 314 326
281 3 332 249 334 35 74 39 31 45 347 346 318 308 290 283 306 308 308 303 300 294 292 287 285 288 290 291 289 296 298 294 285 281 286 294 296 296 307 315 307 299 298 319
128 267 271 306 336 337 106 333 14 34 355 341 335 342 317 294 295 289 285 281 281 274 274 285 288 287 302 308 298 296 297 290 282 272 277 287 291 287 284 296 304 294 299 317
127 211 247 266 311 326 74 335 336 3 335 325 348 340 296 301 307 301 297 294 296 297 298 306 294 288 301 301 298 288 283 276 273 271 271 276 271 266 262 256 272 291 311 317
192 235 258 280 329 17 50 266 284 292 288 301 290 259 272 288 298 297 297 302 308 317 313 302 296 302 298 294 284 276 280 285 288 282 268 266 257 245 266 293 314 325 322 327
145 255 267 308 11 77 238 249 260 274 275 279 284 287 292 293 298 303 306 313 318 320 306 303 303 305 298 288 280 288 300 305 299 293 286 275 245 248 269 300 322 326 343 333
189 219 244 271 234 244 222 255 264 263 278 280 286 287 290 290 291 296 298 303 305 304 304 306 300 285 284 287 294 307 322 321 311 308 306 301 213 213 267 301 263 279 307 311
294 275 273 282 278 285 258 259 266 267 276 281 282 283 287 289 288 294 295 292 297 313 315 307 302 293 275 285 296 312 313 311 313 315 322 344 0 275 204 233 239 248 251 274
274 281 308 302 282 277 284 293 294 289 287 281 284 288 285 288 288 292 299 295 291 289 288 287 290 287 280 285 300 312 295 290 302 303 287 323 321 275 239 236 215 214 228 227
245 249 236 260 265 276 293 294 293 295 305 309 299 288 291 288 283 289 290 286 289 294 298 293 292 284 278 279 277 276 295 297 295 296 298 282 290 326 317 277 268 247 238 232
231 248 236 254 266 284 296 299 297 289 284 300 305 292 287 286 283 287 281 279 280 282 288 285 291 288 283 280 277 260 264 276 290 292 276 256 237 244 304 324 333 310 284 265
259 270 281 281 276 291 302 310 312 306 301 295 294 302 297 290 291 287 279 276 277 282 285 282 287 288 283 275 273 262 267 271 274 268 262 254 247 250 245 253 300 313 316 312
270 234 235 264 294 315 324 335 335 324 321 320 314 307 302 295 286 277 276 278 285 292 289 290 286 286 284 279 273 271 272 269 266 265 263 266 266 255 245 241 245 284 317 332
281 308 327 328 316 316 330 328 321 310 308 307 308 302 293 288 280 282 284 279 282 283 285 287 279 276 278 275 275 281 282 277 270 249 264 287 277 224 244 255 264 270 275 279
19 346 338 327 319 310 312 302 294 296 299 294 286 289 295 300 298 293 292 283 269 267 267 262 268 277 280 269 258 267 277 284 280 284 280 269 247 226 223 233 249 252 257 263
193 247 272 288 301 304 306 305 301 300 293 283 281 289 288 286 284 281 283 285 288 289 275 261 260 274 284 279 267 257 254 255 253 259 273 284 257 227 220 227 232 234 264 318
339 332 322 317 316 307 301 297 296 294 292 290 288 286 279 276 277 281 285 287 282 278 278 273 271 269 276 275 270 262 258 256 252 271 266 262 271 243 224 211 202 198 179 160
348 339 330 323 322 318 309 300 296 296 289 283 285 287 289 288 286 286 280 269 256 249 257 262 263 267 273 272 260 242 240 234 242 262 265 258 250 251 233 199 186 192 187 185
335 327 322 319 313 312 305 294 290 292 290 283 277 278 280 280 279 275 273 276 277 264 253 253 248 249 254 267 269 248 244 241 248 252 244 244 242 225 202 184 176 177 188 197
317 316 316 316 314 312 305 292 286 289 291 287 281 281 283 282 280 275 262 251 264 268 256 247 242 237 247 260 250 238 242 245 249 244 224 213 195 192 191 183 182 192 196 188
309 312 313 310 307 303 304 301 294 291 287 283 282 279 273 269 262 259 273 267 261 267 256 242 239 240 247 245 237 231 239 244 242 236 223 208 195 188 188 193 197 196 190 175
294 295 298 299 302 306 306 302 296 289 283 280 276 269 266 274 279 261 251 255 256 262 254 238 235 237 239 235 231 232 237 238 234 230 211 195 181 182 188 189 191 195 173 156
286 289 296 305 303 298 295 296 297 293 290 287 282 275 265 248 251 263 263 262 259 254 249 240 232 227 224 231 230 233 235 233 220 195 184 172 172 180 183 172 161 155 155 153
282 284 284 280 277 280 287 288 287 286 288 288 286 281 279 271 260 261 263 262 261 256 246 237 225 218 219 223 230 233 234 237 221 194 178 167 168 168 163 151 145 147 144 136
284 283 286 291 288 283 284 281 279 278 276 273 274 272 267 267 264 260 263 262 262 261 246 229 215 206 208 217 228 239 232 211 190 180 178 172 172 173 168 157 147 138 127 119